Owensboro, KY

4:37 AM CST on December 08, 2019 (GMT -0600)
Owensboro-Daviess County

Weather History for KOWB - November, 2019

Change the Weather History Date:

Wednesday, November 13, 2019

  Actual Average Record
Temperature  
Mean Temperature 23 °F -  
Max Temperature 37 °F 56 °F 83 °F (1955)
Min Temperature 9 °F 33 °F 9 °F (2019)
Degree Days  
Heating Degree Days 42    
Moisture  
Dew Point 16 °F    
Average Humidity 71    
Maximum Humidity 88    
Minimum Humidity 46    
Precipitation  
Precipitation 0.00 in - - ()
Sea Level Pressure  
Sea Level Pressure 30.33 in    
Wind  
Wind Speed 4 mph (SSE)    
Max Wind Speed 13 mph    
Max Gust Speed -    
Visibility 10 miles    
Events      
Averages and records for this station are not official NWS values.
T = Trace of Precipitation, MM = Missing Value Source: NWS Daily Summary

Daily Weather History Graph

Daily Weather History Graph

Search for Another Location

Airport or City:

Astronomy

Nov. 13, 2019 Rise Set
Actual Time 6:26 AM CST 4:39 PM CST
Civil Twilight 5:58 AM CST 5:06 PM CST
Nautical Twilight 5:27 AM CST 5:38 PM CST
Astronomical Twilight 4:56 AM CST 6:09 PM CST
Moon 5:42 PM CST (11/13) 7:19 AM CST (11/13)
Length of Visible Light 11h 08m
Length of Day
10h 12m
Full, 99% of the Moon is Illuminated
Nov 13
Full
Nov 19
Last Quarter
Nov 26
New
Dec 4
First Quarter
Dec 11
Full

Hourly Weather History & Observations

Time (CST) Temp. Windchill Dew Point Humidity Pressure Visibility Wind Dir Wind Speed Gust Speed Precip Events Conditions
12:56 AM 10.9 °F - 7.0 °F 84% 30.50 in 10.0 mi Calm Calm - N/A   Clear
2:56 AM 10.0 °F - 7.0 °F 87% 30.48 in 10.0 mi Calm Calm - N/A   Clear
3:56 AM 9.0 °F - 5.0 °F 84% 30.47 in 10.0 mi Calm Calm - N/A   Clear
4:56 AM 10.0 °F 1.8 °F 7.0 °F 87% 30.45 in 10.0 mi SSE 4.6 mph - N/A   Clear
5:56 AM 10.0 °F 3.6 °F 7.0 °F 87% 30.44 in 10.0 mi ESE 3.5 mph - N/A   Clear
6:56 AM 12.0 °F 4.1 °F 9.0 °F 88% 30.43 in 10.0 mi ESE 4.6 mph - N/A   Clear
7:56 AM 19.0 °F 7.5 °F 14.0 °F 81% 30.42 in 10.0 mi SE 10.4 mph - N/A   Clear
8:56 AM 24.1 °F 18.2 °F 16.0 °F 71% 30.42 in 10.0 mi SE 4.6 mph - N/A   Clear
9:56 AM 27.0 °F 20.5 °F 18.0 °F 69% 30.42 in 10.0 mi South 5.8 mph - N/A   Clear
10:56 AM 32.0 °F 27.5 °F 21.0 °F 64% 30.41 in 10.0 mi Variable 4.6 mph - N/A   Clear
11:56 AM 35.1 °F 31.0 °F 19.9 °F 54% 30.38 in 10.0 mi Variable 4.6 mph - N/A   Clear
12:56 PM 32.0 °F 23.6 °F 21.0 °F 64% 30.32 in 10.0 mi SE 10.4 mph - N/A   Clear
1:56 PM 34.0 °F 25.5 °F 19.9 °F 56% 30.26 in 10.0 mi SE 11.5 mph - N/A   Clear
2:56 PM 37.0 °F 28.9 °F 19.9 °F 50% 30.25 in 10.0 mi SSE 12.7 mph - N/A   Clear
3:56 PM 37.0 °F 29.8 °F 18.0 °F 46% 30.24 in 10.0 mi South 10.4 mph - N/A   Clear
4:56 PM 33.1 °F - 19.0 °F 56% 30.24 in 10.0 mi Calm Calm - N/A   Clear
5:56 PM 32.0 °F 27.5 °F 21.0 °F 64% 30.24 in 10.0 mi SE 4.6 mph - N/A   Clear
6:56 PM 28.9 °F 21.9 °F 21.0 °F 72% 30.24 in 10.0 mi SSE 6.9 mph - N/A   Clear
7:56 PM 28.0 °F 24.2 °F 21.0 °F 75% 30.22 in 10.0 mi SSE 3.5 mph - N/A   Clear
8:56 PM 27.0 °F 18.7 °F 19.9 °F 75% 30.21 in 10.0 mi SSE 8.1 mph - N/A   Clear
9:56 PM 27.0 °F 20.5 °F 21.0 °F 78% 30.21 in 10.0 mi SSE 5.8 mph - N/A   Clear
10:56 PM 28.0 °F 21.7 °F 21.0 °F 75% 30.21 in 10.0 mi South 5.8 mph - N/A   Clear
11:56 PM 28.9 °F 25.2 °F 21.9 °F 75% 30.22 in 10.0 mi South 3.5 mph - N/A   Clear